Total_Precipitation_Accumulation
0.54 0.51 0.65 0.63 0.54 0.50 0.52 0.58 0.68 0.80 0.83 0.85 0.83 0.89 0.92 0.93 1.06 1.14 1.14 1.17 1.30 1.55 1.88 2.26 2.60 2.80 2.95 3.11 3.18 3.25 3.33 3.23 3.08 2.98 2.90 2.82 2.86 2.87 2.95 2.97 3.05 2.85 2.53
0.45 0.45 0.53 0.57 0.53 0.54 0.55 0.59 0.71 0.82 0.83 0.91 0.90 0.92 1.00 1.07 1.09 1.08 1.10 1.19 1.38 1.60 1.81 2.05 2.29 2.62 2.75 2.83 2.85 3.10 3.28 3.10 3.21 3.50 3.63 3.37 3.18 3.03 3.27 3.20 3.25 3.22 2.62
0.40 0.45 0.46 0.61 0.58 0.57 0.57 0.62 0.69 0.83 0.90 1.02 1.02 1.00 1.05 1.11 1.08 1.02 1.12 1.30 1.54 1.78 1.95 2.10 2.30 2.64 2.85 2.79 2.88 3.15 3.43 3.42 3.52 3.97 4.36 3.77 3.53 3.41 3.17 3.00 2.84 2.67 2.34
0.59 0.55 0.49 0.63 0.65 0.58 0.58 0.65 0.75 0.89 0.96 1.12 1.11 0.97 1.03 1.09 1.10 1.08 1.16 1.33 1.61 1.91 2.17 2.19 2.26 2.50 2.53 2.53 2.77 3.14 3.43 3.53 3.78 4.04 4.24 4.06 3.92 3.94 3.47 3.05 2.79 2.62 2.31
0.76 0.65 0.62 0.72 0.74 0.71 0.70 0.74 0.82 0.95 1.04 1.15 1.06 1.05 1.13 1.19 1.20 1.21 1.23 1.30 1.54 1.97 2.26 2.21 2.21 2.26 2.30 2.42 2.64 2.88 3.27 3.60 3.86 3.89 4.25 4.64 4.74 4.50 3.63 3.05 2.83 2.77 2.46
0.70 0.61 0.58 0.70 0.72 0.74 0.73 0.74 0.90 1.00 1.10 1.18 1.20 1.20 1.23 1.39 1.42 1.33 1.36 1.49 1.61 1.93 2.24 2.26 2.29 2.27 2.27 2.38 2.48 2.61 2.90 3.43 3.61 3.61 4.32 4.50 4.28 4.41 3.84 3.30 3.02 2.75 2.41
0.72 0.65 0.56 0.63 0.75 0.76 0.81 0.87 1.07 1.20 1.28 1.36 1.37 1.34 1.36 1.47 1.54 1.47 1.53 1.66 1.79 1.92 2.15 2.23 2.18 2.16 2.12 2.28 2.31 2.44 2.59 3.06 3.07 3.77 4.01 4.00 4.08 4.42 4.16 3.67 3.30 2.88 2.51
0.87 0.76 0.66 0.67 0.88 1.00 1.00 1.02 1.18 1.22 1.32 1.40 1.46 1.44 1.40 1.41 1.40 1.41 1.54 1.64 1.85 2.01 2.10 2.06 1.97 1.96 2.02 2.12 2.23 2.42 2.54 2.49 2.45 3.07 3.48 3.59 3.64 4.10 4.26 3.78 3.27 2.97 2.74
0.95 0.79 0.75 0.73 0.98 1.26 1.28 1.19 1.21 1.18 1.29 1.41 1.53 1.55 1.42 1.35 1.28 1.33 1.43 1.52 1.74 1.88 1.88 1.93 1.89 1.81 1.84 2.02 2.32 2.35 2.41 2.52 2.44 2.92 3.10 3.33 3.19 3.69 4.16 3.99 3.30 2.94 2.86
1.19 1.04 1.02 1.02 1.12 1.24 1.28 1.28 1.24 1.21 1.33 1.45 1.51 1.55 1.50 1.46 1.38 1.43 1.38 1.50 1.64 1.87 2.06 2.12 2.02 1.86 1.86 2.02 2.35 2.48 2.45 2.40 2.32 2.67 3.49 3.32 3.03 3.84 4.21 4.06 3.59 3.22 3.04
1.44 1.48 1.40 1.33 1.35 1.35 1.31 1.32 1.45 1.45 1.51 1.53 1.59 1.56 1.56 1.66 1.72 1.70 1.50 1.64 1.77 1.99 2.28 2.30 2.20 2.12 2.07 2.19 2.42 2.44 2.35 2.00 2.30 2.94 3.56 3.36 3.30 4.01 4.26 4.05 3.81 3.55 3.30
1.79 1.82 1.79 1.80 1.77 1.72 1.63 1.82 1.96 1.74 1.69 1.66 1.84 1.68 1.73 2.06 2.13 1.88 2.03 2.21 2.41 2.51 2.54 2.43 2.32 2.24 2.18 2.24 2.39 2.27 1.97 2.01 2.57 3.15 3.18 3.01 3.53 4.20 4.44 4.11 3.89 3.76 3.59
2.18 1.91 1.84 2.10 2.20 2.26 2.39 2.30 2.31 2.30 2.27 2.19 2.33 2.23 2.26 2.39 2.29 2.40 2.60 2.53 2.54 2.65 2.58 2.63 2.42 2.12 2.08 2.28 2.30 2.11 2.08 2.14 2.52 2.95 3.07 3.06 3.67 4.32 4.61 4.41 4.08 4.01 4.03
2.50 2.33 2.04 2.09 2.18 2.38 2.58 2.58 2.54 2.46 2.42 2.39 2.53 2.36 2.49 2.67 2.80 2.90 3.09 2.88 2.83 2.82 2.96 2.92 2.75 2.42 2.18 2.14 2.08 2.08 2.20 2.20 2.36 2.74 2.95 2.75 3.22 3.98 4.56 4.66 4.42 4.32 4.28
2.84 2.75 2.54 2.28 2.27 2.46 2.78 2.93 2.88 2.97 2.80 2.83 2.95 2.74 2.68 2.77 2.85 3.21 3.32 3.60 3.28 3.19 3.33 3.27 3.05 2.90 2.61 2.41 2.31 2.25 2.32 2.30 2.33 2.59 2.75 2.69 2.98 3.58 4.24 4.60 4.66 4.63 4.57
3.45 3.14 2.87 2.72 2.62 2.61 2.77 3.11 3.23 3.07 3.09 3.08 3.18 3.09 3.02 3.07 3.20 3.56 3.74 3.94 3.77 3.75 3.96 3.98 3.75 3.53 3.23 3.14 2.90 2.83 2.73 2.72 2.94 2.94 2.94 2.86 2.81 3.05 3.77 4.34 4.71 4.95 4.93
3.67 3.52 3.28 3.18 3.22 3.03 2.95 3.26 3.39 3.27 3.17 3.20 3.40 3.47 3.34 3.41 3.75 3.89 4.27 4.30 4.12 4.10 4.17 4.19 4.43 4.34 3.82 3.54 3.44 3.36 3.23 3.08 3.30 3.44 3.51 3.31 3.02 3.04 3.33 3.90 4.27 4.51 4.69
3.90 3.71 3.57 3.21 3.23 3.45 3.47 3.75 3.69 3.74 3.87 3.82 3.84 4.03 3.94 3.97 4.09 4.15 4.23 4.34 4.29 4.28 4.66 4.88 4.82 4.74 4.49 4.11 3.99 3.74 3.51 3.48 3.27 3.28 3.40 3.31 3.30 3.00 2.94 3.12 3.49 3.68 4.06
3.37 3.51 3.58 3.51 3.48 3.53 3.73 4.16 4.33 4.55 4.68 4.82 4.83 5.03 4.92 4.67 4.58 4.67 4.68 4.87 4.71 4.78 4.85 4.73 5.19 5.14 5.03 4.58 4.06 3.86 3.51 3.46 3.37 3.04 3.05 3.11 3.14 3.03 2.98 2.91 3.19 3.40 3.71
3.38 3.54 3.63 3.81 4.04 4.02 4.11 4.43 4.90 5.12 5.21 5.53 5.56 5.56 5.60 5.57 5.44 5.47 5.43 5.48 5.32 5.19 5.17 5.19 5.33 5.06 4.88 4.66 4.06 3.75 3.39 3.02 2.96 2.95 2.71 2.89 2.84 2.64 2.83 3.02 3.14 2.99 3.41
3.53 3.75 3.66 3.87 4.30 4.58 4.98 5.02 5.25 5.71 6.02 6.11 6.14 6.11 6.00 5.94 5.99 5.88 5.71 5.88 5.69 5.42 5.21 5.19 5.19 5.08 4.70 4.68 4.70 4.21 3.46 2.97 2.75 2.56 2.61 2.73 2.63 2.60 2.93 3.04 2.97 2.87 2.84
3.52 3.77 3.91 4.07 4.59 5.07 5.65 6.18 6.58 7.01 7.03 7.13 7.05 6.94 6.56 6.37 6.32 6.13 6.18 5.98 5.78 5.67 5.39 5.19 5.17 5.08 4.69 4.76 4.81 4.83 4.01 3.39 2.69 2.12 2.25 2.32 2.35 2.46 2.60 2.62 2.64 2.70 2.70
3.56 3.81 3.98 4.36 4.99 5.83 6.48 7.00 7.54 7.89 7.62 7.40 7.08 6.91 6.76 6.72 6.67 6.51 6.45 6.16 5.98 5.73 5.39 5.12 5.00 4.93 4.81 4.80 4.67 4.83 4.28 3.56 2.95 2.38 2.04 1.98 2.16 2.37 2.37 2.48 2.40 2.41 2.53
3.60 3.74 3.98 4.68 5.39 6.05 6.73 7.38 7.94 8.20 8.19 7.98 7.40 6.91 6.54 6.27 5.98 5.89 5.92 5.81 5.66 5.35 5.11 4.74 4.64 4.62 4.79 4.59 4.54 4.31 4.02 3.68 3.45 2.94 2.42 2.18 2.19 2.18 2.20 2.22 2.24 2.33 2.44
3.31 3.72 4.05 4.75 5.53 6.22 7.03 7.79 8.22 8.38 8.34 7.99 7.24 6.53 5.98 5.60 5.20 4.96 5.03 4.99 4.82 4.62 4.47 4.40 4.47 4.37 4.28 4.08 3.99 4.03 4.11 4.01 3.57 3.21 2.83 2.55 2.44 2.26 2.25 2.26 2.39 2.43 2.42
3.13 3.60 4.12 4.54 5.25 6.10 6.74 7.27 7.42 7.56 7.53 7.13 6.69 6.18 5.79 5.27 4.71 4.30 4.19 4.13 3.95 3.80 3.81 3.85 3.95 3.87 3.88 3.89 3.82 3.69 3.73 3.74 3.49 3.39 3.06 2.75 2.68 2.46 2.34 2.25 2.22 2.34 2.43